Content
SEND FEEDBACK

Daily
Averages
Monthly
Summary
United States of America

BIG SKY, MONTANA


Home > North America > United States > Montana
Elevation: 4908 feet     Latitude: 45 40N     Longitude: 111 03W

WEATHER
 
SELECT A DAY
Number of Records: 193,075;   Date Range: 1/1/95 - 11/22/14
 
SHARE

PRINT THIS DATA

[ ← Previous Day ]
WEATHER ALMANAC - JANUARY 23, 2013
[ Next Day → ]
[ °C ]   °F
Weather ElementAverageHighLow
Temperature25.5 °F30.9 °F (2:56 pm)19 °F (3:56 am)
Dewpoint17.4 °F23 °F (10:56 pm)12 °F (7:56 am)
Humidity71.5 %78 % (6:56 am)61 % (2:56 pm)
Barometer30.18 in30.28 in (8:56 am)30.03 in (11:56 pm)
Wind Speed2 mph6.9 mph (9:56 pm)
Weather ElementAverage
Visibility9.9 mi
Wind DirectionENE (70.9 °)

Weather ElementTotal
Precipitation---
Heating Degree Days40.1 (Base 65)
Averaged from 23 records on January 23, 2013
WEATHER CONDITIONS BREAKOUT
WIND DIRECTION BREAKOUT
WEATHER BY HOUR - JANUARY 23, 2013
[ °C ]   °F
Local TimeTemperatureDewpointHumidityBarometerVisibilityWind DirectionWind SpeedGust SpeedPrecipitationEventsConditions
1:56 AM19.9 °F12.9 °F74 %30.25 in10.0 miSSW (210°)4.6 mphClear
2:56 AM19.9 °F12.9 °F74 %30.24 in10.0 miCalmClear
3:56 AM19.0 °F12.9 °F77 %30.25 in10.0 miEast (100°)3.5 mphClear
4:56 AM21.9 °F14.0 °F72 %30.25 in10.0 miCalmClear
5:56 AM19.0 °F12.9 °F77 %30.26 in10.0 miSSE (160°)5.8 mphClear
6:56 AM19.9 °F14.0 °F78 %30.27 in10.0 miSouth (180°)3.5 mphClear
7:56 AM19.0 °F12.0 °F74 %30.26 in10.0 miCalmClear
8:56 AM19.9 °F12.9 °F74 %30.28 in10.0 miCalmClear
9:56 AM23.0 °F15.1 °F72 %30.26 in10.0 miSouth (190°)3.5 mphClear
10:56 AM26.1 °F16.0 °F66 %30.25 in10.0 miCalmClear
11:56 AM28.0 °F19.0 °F69 %30.21 in10.0 miCalmClear
12:56 PM30.0 °F19.0 °F64 %30.18 in10.0 miCalmClear
1:56 PM30.0 °F19.0 °F64 %30.17 in10.0 miCalmClear
2:56 PM30.9 °F19.0 °F61 %30.13 in10.0 miSSE (150°)4.6 mphClear
3:56 PM30.0 °F19.0 °F64 %30.14 in10.0 miEast (90°)3.5 mphClear
4:56 PM30.0 °F19.9 °F66 %30.13 in10.0 miCalmClear
5:56 PM28.9 °F19.9 °F69 %30.11 in10.0 miSSE (150°)3.5 mphClear
6:56 PM27.0 °F19.9 °F75 %30.12 in10.0 miCalmClear
7:56 PM28.9 °F21.0 °F72 %30.10 in9.0 miCalmClear
8:56 PM28.9 °F21.9 °F75 %30.10 in8.0 miCalmPartly Cloudy
9:56 PM28.0 °F21.9 °F78 %30.07 in10.0 miSSE (160°)6.9 mphOvercast
10:56 PM28.9 °F23.0 °F78 %30.05 in10.0 miCalmOvercast
11:56 PM30.0 °F21.9 °F72 %30.03 in10.0 miWSW (240°)5.8 mphOvercast
Hourly data recorded from KBZN, located miles away from Big Sky, Montana







STORIES FROM OUR PARTNERS